Wind_Speed
41 42 45 44 44 46 46 46 50 54 59 62 62 59 60 60 56 54 52 50 48 48 48 45 45 46 50 52 48 47 50 43 45 39 34 32 33 37 38 38 38 38 37 38
43 43 43 44 46 47 48 49 49 50 52 58 63 62 62 62 60 59 58 55 52 52 51 48 47 48 49 50 54 54 53 48 43 37 35 35 39 39 38 40 40 40 39 39
44 45 45 45 46 48 48 49 50 51 54 56 58 58 61 64 63 61 60 59 57 56 55 53 48 50 50 51 52 53 55 53 50 47 39 41 39 40 39 40 41 41 41 42
48 48 47 46 47 48 48 50 51 53 55 56 59 60 57 60 63 64 63 64 61 60 59 59 52 52 53 52 53 53 55 55 55 48 47 42 48 44 42 41 41 42 43 44
48 50 48 47 46 46 46 48 50 52 53 54 54 60 48 55 59 63 66 66 66 63 62 60 58 54 54 56 54 54 54 56 57 53 46 47 47 48 43 41 43 43 44 46
50 47 45 43 42 41 40 39 40 44 47 50 45 53 43 54 59 61 65 68 67 67 65 62 63 58 56 57 55 54 53 52 55 57 47 48 48 49 50 48 44 44 46 47
48 42 40 34 28 26 28 29 29 27 27 32 31 45 46 45 49 56 60 61 66 67 66 65 65 63 59 58 58 57 55 53 51 47 55 52 51 52 53 51 47 45 46 48
54 39 28 24 22 19 18 18 15 23 20 16 12 16 16 23 28 38 48 55 61 64 66 66 64 65 62 60 59 59 55 54 50 43 49 52 55 52 53 53 49 44 44 49
52 27 20 12 15 18 11 10 9 18 18 15 4 8 13 17 19 20 28 42 52 59 62 65 65 63 63 60 60 60 59 56 49 49 50 52 56 54 51 53 54 52 52 55
42 27 17 12 12 10 10 8 10 16 21 22 21 19 25 18 16 20 25 31 38 45 52 60 61 60 60 58 60 59 57 56 49 51 53 51 52 56 56 54 52 53 57 53
38 27 17 13 13 9 6 5 11 15 17 24 25 24 21 21 22 21 28 32 30 38 43 52 58 49 55 58 59 58 55 54 49 46 51 50 52 53 51 47 50 53 53 54
33 28 16 13 16 14 5 9 10 19 20 21 28 21 23 27 30 28 26 39 36 35 36 43 49 52 52 55 58 55 54 51 46 46 45 48 49 57 51 51 55 54 54 59
32 26 15 7 14 11 9 7 13 17 22 23 29 26 26 29 30 34 35 35 40 34 37 41 35 45 52 52 52 53 52 48 42 40 58 44 46 50 59 58 56 61 54 51
28 20 17 18 21 12 5 9 13 17 23 27 27 29 32 30 32 29 29 32 43 42 38 37 37 44 51 50 51 48 44 44 46 46 38 48 44 41 46 53 50 49 42 37
22 15 18 23 17 6 6 12 14 18 22 27 28 27 23 26 35 35 13 11 27 39 44 37 37 48 53 51 49 44 49 47 35 50 51 48 47 42 43 42 42 34 28 24
20 16 13 20 16 5 6 11 14 17 21 22 24 19 19 22 31 26 11 3 14 20 33 36 37 44 40 44 45 47 47 53 50 50 46 39 39 45 44 29 26 24 23 25
19 16 10 17 13 4 7 9 12 17 19 26 22 17 15 21 26 24 7 9 6 22 23 35 35 31 34 37 42 32 35 41 45 47 54 48 40 26 24 21 18 21 25 28
19 15 9 12 9 6 10 8 11 13 18 18 8 11 14 23 27 31 20 8 15 26 24 19 20 26 23 29 34 37 43 47 47 37 35 26 25 21 18 12 16 21 27 31
17 11 7 5 10 8 14 11 7 12 12 17 10 8 16 24 28 38 38 35 30 20 22 32 25 20 32 36 28 37 29 30 28 25 22 16 12 13 13 14 21 26 25 29
17 11 6 5 6 6 12 15 9 12 9 17 15 15 16 20 26 39 41 44 43 42 43 38 36 36 34 31 30 28 25 21 16 13 9 4 2 7 16 19 20 24 28 31
17 13 6 3 2 4 9 18 11 12 10 10 14 21 22 25 21 27 32 32 29 34 37 34 32 31 29 27 25 24 17 16 9 2 4 7 8 12 16 21 24 26 28 27
17 12 7 3 3 4 5 14 14 10 9 7 8 14 23 25 27 28 29 29 30 30 30 30 30 30 25 20 15 10 7 3 1 2 5 8 13 17 20 22 23 24 29 33
14 10 7 3 3 3 5 11 13 6 9 6 9 15 20 20 23 24 26 26 25 25 22 20 17 15 13 10 8 6 4 4 5 8 10 14 17 18 19 23 27 30 33 35
4 1 0 2 3 5 9 8 10 2 6 4 6 15 18 16 19 21 21 19 17 14 15 16 16 14 12 9 8 6 8 10 12 16 17 17 18 23 27 30 32 34 36 37
8 5 2 3 5 9 9 5 8 2 4 6 8 13 14 13 13 14 14 13 13 12 12 12 12 10 9 8 8 10 12 13 13 15 20 23 25 27 30 32 34 34 35 37
8 4 2 4 7 6 5 2 2 4 5 3 7 9 11 10 10 10 9 8 8 9 8 9 9 9 9 9 10 10 9 12 16 19 23 26 29 30 31 32 34 35 36 35
Wind_Direction
297 293 289 286 282 278 275 270 265 261 259 255 253 251 252 252 251 252 252 252 250 249 251 246 244 241 241 241 245 246 247 246 241 240 245 247 250 253 256 256 258 261 264 266
301 298 293 287 282 278 276 274 269 267 263 259 255 250 250 251 251 248 246 246 246 247 249 247 245 244 241 241 242 240 248 247 248 249 245 247 248 250 255 259 262 265 268 269
304 300 297 291 286 280 277 274 270 266 261 261 260 254 251 249 249 249 249 247 245 246 244 245 244 244 244 245 244 241 244 247 245 250 247 251 251 252 253 257 260 263 264 267
306 304 302 298 293 285 279 275 271 266 261 257 256 261 253 250 249 248 248 249 243 241 244 246 243 241 245 246 245 244 241 244 251 253 243 248 252 247 250 254 260 263 266 268
313 309 305 301 294 287 282 275 271 268 264 261 260 258 255 251 251 248 246 247 245 241 241 242 239 241 240 243 244 245 245 243 246 251 253 244 251 259 258 258 260 263 267 268
314 315 309 300 293 288 282 277 274 272 270 264 268 263 253 250 251 249 244 244 243 242 241 240 242 239 238 240 243 245 248 246 249 252 249 250 248 251 254 254 254 257 263 269
324 328 315 299 295 296 299 299 300 286 286 282 284 265 252 263 256 249 246 244 243 243 240 239 238 238 239 239 239 241 244 246 246 251 249 255 253 253 255 260 258 259 263 269
334 339 309 294 302 330 315 290 301 314 321 309 300 305 274 282 259 252 250 245 243 242 240 236 237 236 235 236 237 238 240 243 243 246 247 250 251 253 263 260 260 267 271 269
336 349 321 312 318 325 339 300 299 325 319 313 289 298 304 306 289 273 257 244 242 241 239 236 233 234 234 231 235 235 237 240 240 241 245 253 251 259 253 263 269 273 272 273
340 345 334 310 305 307 329 306 315 317 323 316 319 322 318 294 278 284 248 246 236 236 237 236 234 233 233 230 231 233 235 237 237 239 245 250 250 248 258 263 267 269 267 273
337 339 335 312 297 295 298 345 319 333 337 329 322 343 323 316 299 273 258 241 227 226 231 234 232 221 228 228 227 230 233 235 233 239 247 251 253 251 257 264 270 261 278 275
338 338 332 320 315 330 307 340 347 337 333 330 324 345 335 321 307 281 268 240 227 221 218 228 231 224 220 224 225 228 231 234 229 236 243 248 254 255 262 263 265 267 273 263
340 338 340 320 325 329 317 317 312 319 328 331 320 327 328 323 316 299 269 246 224 214 218 224 227 221 214 217 220 223 226 226 220 223 243 250 249 257 258 262 255 260 262 263
340 336 347 333 341 350 303 298 321 325 321 331 327 323 326 321 325 309 289 248 226 221 222 221 215 212 211 209 216 219 220 220 228 236 257 245 253 256 254 251 255 263 263 261
341 345 356 333 342 352 331 341 338 334 331 329 342 335 336 334 346 343 337 263 212 221 216 214 218 208 202 208 210 212 216 216 229 229 246 247 257 261 256 257 256 255 248 255
350 358 351 340 348 353 324 336 334 333 336 346 342 341 340 357 359 353 7 164 186 201 207 215 215 202 193 201 205 207 219 224 226 237 243 239 247 259 254 252 240 236 249 259
346 358 5 341 349 353 336 350 354 351 358 356 359 4 8 24 18 22 3 121 163 162 168 178 178 179 187 196 204 205 206 224 228 237 238 237 246 234 222 224 240 253 266 279
338 354 10 345 1 12 19 13 16 357 3 13 29 14 32 46 42 41 62 117 167 153 162 168 176 161 178 184 184 207 220 222 227 230 234 211 209 213 227 259 287 299 298 296
329 345 337 335 354 25 20 14 9 360 8 14 11 47 64 64 72 68 78 90 102 117 131 179 180 189 193 196 206 199 208 215 208 196 193 199 217 234 265 294 293 293 297 299
318 322 328 299 329 359 26 16 11 5 17 31 39 64 78 87 80 81 79 85 85 101 107 114 123 132 141 154 147 152 163 160 162 146 117 123 325 283 287 291 292 298 300 301
297 305 301 283 303 335 19 14 6 13 30 51 44 69 73 76 85 90 83 90 80 91 96 99 98 112 129 134 131 134 125 118 116 96 291 287 300 297 300 301 302 304 309 313
289 303 290 254 233 283 350 3 1 18 42 35 19 73 79 72 71 77 84 86 83 81 92 98 99 108 114 118 123 110 103 108 76 328 321 314 307 306 308 313 318 319 317 316
284 286 277 249 243 243 308 335 348 357 37 50 57 71 77 79 78 73 75 78 77 83 88 92 88 89 93 100 94 90 79 48 357 334 324 320 327 332 327 319 318 320 320 318
329 356 276 271 254 248 274 303 331 318 28 55 71 76 68 64 65 69 72 76 84 86 91 91 94 94 87 77 65 41 16 355 343 343 341 339 330 326 329 328 327 326 325 322
30 28 33 275 279 266 259 285 324 172 77 81 76 73 72 72 70 78 79 79 80 80 80 78 72 64 56 40 19 8 5 360 360 346 334 335 333 333 333 331 329 325 319 317
11 22 80 178 212 210 215 271 276 145 143 86 73 65 70 68 73 72 76 80 78 75 63 53 48 38 27 11 5 16 9 348 339 335 335 336 337 335 334 334 331 329 328 326
Height
5692 5689 5684 5682 5679 5678 5677 5678 5678 5680 5680 5681 5685 5691 5693 5697 5705 5710 5716 5719 5721 5726 5728 5733 5736 5740 5744 5747 5752 5757 5758 5763 5765 5767 5773 5776 5778 5778 5779 5780 5781 5782 5783 5783
5681 5675 5672 5669 5666 5665 5663 5662 5663 5664 5665 5665 5665 5675 5678 5683 5689 5695 5700 5706 5710 5714 5716 5722 5726 5730 5734 5738 5741 5748 5749 5753 5757 5761 5763 5766 5768 5769 5771 5773 5774 5775 5776 5776
5669 5666 5660 5656 5652 5650 5649 5646 5647 5647 5648 5649 5648 5660 5664 5669 5673 5679 5686 5692 5697 5700 5702 5707 5715 5718 5723 5728 5731 5737 5741 5743 5748 5752 5757 5758 5761 5762 5763 5765 5766 5767 5767 5766
5658 5652 5647 5642 5637 5634 5633 5630 5629 5630 5630 5633 5633 5636 5649 5653 5658 5665 5671 5673 5680 5686 5689 5692 5702 5708 5712 5717 5721 5727 5731 5735 5738 5743 5748 5749 5750 5752 5754 5755 5758 5758 5759 5758
5649 5641 5635 5629 5624 5620 5617 5614 5613 5611 5613 5617 5621 5614 5639 5639 5641 5645 5651 5657 5661 5669 5674 5679 5685 5694 5700 5704 5709 5715 5720 5725 5729 5734 5738 5737 5742 5745 5748 5748 5749 5749 5751 5749
5637 5632 5624 5617 5611 5606 5603 5601 5600 5598 5597 5604 5603 5599 5633 5620 5622 5625 5629 5635 5642 5650 5659 5666 5670 5680 5687 5692 5698 5703 5708 5716 5721 5727 5729 5728 5734 5736 5736 5737 5738 5739 5740 5740
5630 5622 5610 5604 5602 5600 5596 5594 5590 5592 5592 5592 5591 5592 5609 5600 5602 5605 5611 5617 5625 5633 5642 5650 5656 5664 5673 5679 5685 5691 5697 5705 5711 5717 5720 5722 5725 5725 5726 5728 5728 5729 5730 5730
5615 5611 5602 5598 5597 5595 5594 5590 5590 5586 5586 5585 5586 5587 5588 5585 5586 5587 5593 5600 5607 5614 5623 5632 5640 5649 5658 5665 5673 5680 5687 5693 5703 5708 5709 5712 5714 5716 5718 5719 5719 5720 5720 5720
5609 5609 5600 5597 5597 5594 5591 5589 5590 5588 5587 5582 5583 5584 5583 5578 5577 5579 5581 5584 5591 5598 5604 5613 5624 5634 5642 5651 5660 5667 5675 5682 5692 5697 5700 5703 5705 5707 5710 5711 5711 5711 5710 5708
5610 5605 5600 5598 5596 5594 5591 5590 5589 5588 5582 5579 5580 5579 5574 5573 5572 5570 5570 5571 5577 5582 5589 5597 5611 5621 5627 5637 5646 5655 5664 5671 5681 5686 5691 5695 5697 5700 5700 5701 5702 5702 5702 5700
5607 5604 5600 5597 5595 5592 5591 5589 5589 5586 5584 5579 5573 5576 5570 5567 5565 5564 5562 5562 5565 5570 5576 5584 5594 5605 5615 5625 5635 5644 5653 5661 5669 5675 5683 5687 5689 5691 5691 5692 5693 5695 5693 5690
5606 5601 5597 5595 5593 5591 5589 5589 5587 5585 5583 5580 5575 5572 5566 5562 5557 5555 5554 5552 5555 5560 5566 5572 5581 5593 5604 5615 5625 5634 5644 5653 5661 5666 5674 5679 5681 5682 5683 5685 5686 5685 5684 5680
5604 5598 5595 5596 5594 5590 5589 5588 5586 5585 5581 5579 5574 5569 5565 5560 5554 5545 5540 5541 5544 5550 5557 5563 5572 5582 5592 5605 5615 5626 5636 5646 5656 5661 5665 5669 5671 5674 5675 5676 5675 5674 5672 5670
5602 5597 5595 5594 5591 5589 5588 5587 5586 5583 5579 5575 5572 5566 5562 5554 5545 5533 5522 5522 5529 5537 5546 5555 5563 5572 5582 5596 5608 5619 5630 5640 5647 5651 5655 5662 5665 5665 5666 5665 5663 5662 5661 5660
5601 5597 5595 5593 5591 5589 5588 5587 5585 5582 5579 5574 5570 5564 5559 5550 5537 5522 5513 5510 5517 5525 5537 5547 5556 5564 5576 5589 5602 5616 5623 5631 5636 5647 5651 5654 5655 5656 5654 5653 5652 5653 5653 5653
5599 5596 5595 5593 5591 5589 5588 5587 5585 5581 5579 5575 5569 5564 5558 5550 5539 5524 5516 5514 5518 5524 5531 5542 5551 5562 5575 5586 5598 5605 5617 5628 5635 5640 5643 5645 5646 5645 5643 5642 5644 5646 5646 5646
5599 5596 5595 5593 5591 5590 5590 5587 5585 5581 5577 5572 5568 5564 5558 5551 5542 5529 5520 5519 5523 5529 5535 5543 5552 5565 5574 5585 5597 5607 5616 5625 5629 5633 5632 5633 5635 5636 5636 5638 5640 5641 5640 5637
5598 5595 5594 5594 5592 5591 5589 5586 5584 5581 5578 5575 5571 5568 5562 5555 5548 5539 5529 5528 5529 5535 5543 5548 5555 5564 5576 5586 5596 5604 5611 5614 5618 5618 5623 5625 5627 5629 5632 5633 5633 5633 5632 5630
5596 5594 5593 5593 5593 5593 5589 5587 5586 5583 5581 5578 5574 5570 5567 5563 5557 5551 5541 5537 5537 5541 5545 5553 5563 5569 5575 5583 5590 5597 5601 5606 5610 5614 5618 5622 5626 5629 5628 5627 5627 5627 5627 5625
5593 5592 5592 5591 5591 5593 5591 5589 5587 5585 5583 5580 5578 5574 5571 5568 5567 5558 5554 5554 5553 5552 5554 5559 5566 5572 5578 5584 5589 5594 5601 5606 5612 5616 5620 5621 5621 5621 5622 5624 5624 5623 5621 5618
5590 5589 5589 5590 5591 5593 5592 5591 5588 5588 5589 5584 5583 5578 5575 5572 5569 5568 5565 5565 5566 5568 5570 5572 5573 5578 5584 5590 5596 5601 5605 5607 5610 5614 5615 5618 5618 5619 5620 5620 5619 5617 5613 5608
5586 5587 5586 5588 5590 5594 5593 5593 5592 5590 5588 5588 5586 5583 5578 5577 5576 5574 5574 5573 5572 5574 5577 5578 5581 5586 5591 5595 5601 5603 5606 5609 5610 5611 5613 5614 5616 5617 5615 5613 5610 5606 5603 5599
5585 5586 5585 5588 5591 5593 5593 5594 5594 5591 5591 5591 5590 5586 5583 5582 5581 5579 5578 5578 5579 5580 5583 5587 5590 5593 5595 5598 5601 5603 5606 5608 5610 5611 5612 5612 5610 5608 5607 5606 5602 5599 5595 5593
5586 5586 5586 5587 5590 5593 5595 5595 5595 5594 5593 5593 5593 5588 5587 5587 5586 5585 5585 5588 5590 5591 5592 5594 5596 5598 5600 5601 5603 5605 5606 5607 5608 5608 5608 5607 5606 5604 5601 5598 5594 5590 5585 5582
5589 5588 5588 5588 5589 5591 5594 5595 5595 5596 5596 5596 5594 5592 5592 5593 5592 5591 5591 5593 5594 5596 5596 5597 5597 5599 5601 5602 5603 5603 5603 5604 5604 5605 5604 5602 5600 5596 5593 5591 5588 5585 5581 5575
5592 5590 5590 5590 5591 5592 5594 5594 5595 5597 5598 5597 5596 5595 5595 5595 5596 5596 5598 5599 5599 5598 5598 5599 5599 5600 5601 5601 5602 5602 5602 5602 5602 5601 5599 5597 5595 5593 5590 5585 5580 5574 5570 5565